BEIDOU-3 M5 (C21)

Last updated on Jan. 24, 2021, 6:19 a.m. UTC

1 43207U 18018A   21023.58634988 -.00000030  00000-0  00000-0 0  9997
2 43207  55.2583 128.9332 0005122 333.3433  26.6212  1.86231622 20042
UTC
Height (km)
Latitude
Longitude
Inclination
Orbital Period
UTC large
Height (km)
Speed (km/s)
/
Latitude / Longitude
Inclination (degrees)
Orbital Period (minutes)
Azimuth
Elevation
Range (km)
Doppler Factor
iOS Compass Heading
iOS Angle

Next 30 passes for location: Hong Kong

Rise time Rise Azimuth (degrees) Set time Set Azimuth (degrees) Duration Max altitude (degrees)

No matching passes for this satellites